025  
ASUS41 KBOX 210010  
RWRBOX  
 
REGIONAL WEATHER ROUNDUP  
NATIONAL WEATHER SERVICE BOSTON/NORTON MA  
800 PM EDT SAT APR 20 2019  
 
NOTE: "FAIR" INDICATES FEW OR NO CLOUDS BELOW 12,000 FEET WITH NO  
SIGNIFICANT WEATHER AND/OR S TO VISIBILITY
.  
 
MAZALL-210100-  
EASTERN MASSACHUSETTS  
 
CITY SKY/WX TMP DP RH WIND PRES REMARKS
 
BOSTON LGT RAIN 65 61 87 S9 29.95R  
6HR MIN TEMP: 63; 6HR MAX TEMP: 74; 6HR PCP: 0.04;  
 
BEVERLY CLOUDY 60 57 89 E8 29.94R  
LAWRENCE LGT RAIN 65 61 87 VRB5 29.94R  
BEDFORD LGT RAIN 65 64 97 S10 29.92R  
BLUE HILL N/A 61 61 100 S20G28 29.93R  
NORWOOD LGT RAIN 66 61 84 SE9 29.94R  
MARSHFIELD CLOUDY 64 64 100 S12G20 29.96R  
PLYMOUTH CLOUDY 62 60 93 S8G24 29.98R FOG  
TAUNTON LGT RAIN 65 62 90 S8 29.96R FOG  
NEW BEDFORD CLOUDY 60 60 100 S20G32 29.97R FOG  

 
 
MAZALL-210100-  
CAPE COD AND THE ISLANDS  
 
CITY SKY/WX TMP DP RH WIND PRES REMARKS
 
FALMOUTH CLOUDY 59 59 100 S18G26 29.99R FOG  
HYANNIS CLOUDY 60 57 89 S13G24 29.97R FOG  
CHATHAM CLOUDY 54 53 97 S12G21 30.02R FOG  
PROVINCETOWN CLOUDY 58 57 97 S12 30.01S  
NANTUCKET MOCLDY 55 54 96 S23G35 30.01R FOG  
MARTHAS VNYRD CLOUDY 56 54 93 S14 29.99R FOG  

 
 
MAZALL-210100-  
CENTRAL AND WESTERN MASSACHUSETTS  
 
CITY SKY/WX TMP DP RH WIND PRES REMARKS
 
WORCESTER CLOUDY 61 61 100 SE14G23 29.91F  
6HR MIN TEMP: 61; 6HR MAX TEMP: 66; 6HR PCP: 0.12;  
 
FITCHBURG LGT RAIN 65 61 87 SE10 29.91R  
ORANGE MOCLDY 67 61 81 S9 29.85F  
SPRINGFIELD LGT RAIN 65 61 89 S13 29.84S  
WESTFIELD CLOUDY 63 60 90 S14G22 29.85R  
NORTH ADAMS FAIR 65 56 72 SE22G37 29.81R  
PITTSFIELD FAIR 62 53 72 SE15G30 29.81R  

 
 
RIZALL-210100-  
RHODE ISLAND  
 
CITY SKY/WX TMP DP RH WIND PRES REMARKS
 
PROVIDENCE LGT RAIN 60 60 100 S17 29.95R FOG  
6HR MIN TEMP: 57; 6HR MAX TEMP: 65; 6HR PCP: 0.30;  
 
NEWPORT LGT RAIN 55 55 100 S13G21 29.96R VSB 1/2  
BLOCK ISLAND LGT RAIN 54 54 100 S14 29.94F VSB 1/2  
SMITHFIELD LGT RAIN 61 59 94 SE8 29.94S FOG  
WESTERLY LGT RAIN 56 56 100 SE10 29.92S FOG  

 
 
CTZALL-210100-  
CONNECTICUT  
 
CITY SKY/WX TMP DP RH WIND PRES REMARKS
 
BRADLEY INTL CLOUDY 64 61 90 S17 29.87R  
6HR MIN TEMP: 63; 6HR MAX TEMP: 69; 6HR PCP: 0.03;  
 
HARTFORD MOCLDY 62 59 90 S8 29.87R  
BRIDGEPORT CLOUDY 58 54 86 S9 29.88R  
DANBURY FAIR 58 53 84 S8 29.86R  
GROTON CLOUDY 55 54 96 SW7 29.93R  
NEW HAVEN CLOUDY 59 56 89 SE9 29.89R  
CHESTER CLOUDY 61 61 100 MISG N/A  
MERIDEN CLOUDY 60 57 89 S13G18 29.87S  
WILLIMANTIC CLOUDY 62 61 96 S13G21 29.90S  
OXFORD CLOUDY 58 56 93 S14G24 29.87R  

 
 
MEZ002-015-021-024-NHZ003-005-008-011-012-014-VTZ005-008-210100-  
NORTHERN NEW ENGLAND  
 
CITY SKY/WX TMP DP RH WIND PRES REMARKS
 
PORTLAND ME FOG 53 51 93 S8 29.96R VSB 1/2  
6HR MIN TEMP: 53; 6HR MAX TEMP: 57; 6HR PCP: TRACE;  
 
BANGOR ME FOG 50 49 96 SE9 30.01F VSB 1/2  
CONCORD NH CLOUDY 66 60 81 S12 29.92R  
MANCHESTER NH CLOUDY 66 61 84 S15 29.90R  
NASHUA NH CLOUDY 65 64 97 SE9G21 29.91S  
PORTSMOUTH NH LGT RAIN 62 61 96 SE13 29.93  
JAFFREY NH CLOUDY 65 59 81 S13G23 29.89R  
KEENE NH CLOUDY 67 61 81 S13G21 29.84F  
BURLINGTON VT FOG 45 44 97 CALM 29.79S VSB 1/4  
MT. WASHINGTON FOG 46 46 100 S49G64 N/A VSB 1/16  

 
 
NYZ052-076-210100-  
EASTERN NEW YORK  
 
CITY SKY/WX TMP DP RH WIND PRES REMARKS
 
ALBANY MOCLDY 67 53 61 S14G24 29.76R  
6HR MIN TEMP: 67; 6HR MAX TEMP: 71; 6HR PCP: 0.01;  
 
NEW YORK CITY MOCLDY 56 47 71 S14G24 29.83R  
6HR MIN TEMP: 56; 6HR MAX TEMP: 61; 6HR PCP: TRACE;  
 

 
 
ANZALL-210100-  
MARINE OBSERVATIONS  
 
STATION/POSITION TIME TEMP WIND PRES VSBY WAVE
 
AIR SEA DIR/SP/G HT/PER  
(UTC) (F) (DEG/KT/KT) (MB) (MI) (FT/S)  
BOSTON BUOY 2350 52 44 150/ 14/ 16 1014.2R 4/ 9  
BUZZARDS BAY NOT AVBL  
NANTUCKET SOUND 2350 56 48 170/ 21/ 27 1015.2R 3/ 4  
MASS BAY-STELLWA 2304 49 42 170/ 14/ 16 1013.2R 5/16 5/ 5  
ISLE OF SHOALS 0000 53 170/ 25/ 26 1013.5R  
S OF BLOCK IS 2330 46 N/A 11/11  

 
   
.....................KEY......................
 
 
SKY/WX - SKY CONDITION/PRESENT WEATHER  
TMP - TEMPERATURE IN FAHRENHEIT  
DWPT - DEWPOINT IN FAHRENHEIT  
RH - RELATIVE HUMIDITY IN PERCENT  
WIND - DIRECTION AND SPEED IN MPH  
PRES - MEAN SEA LEVEL PRESSURE IN INCHES OF HG  
WCI - WIND CHILL INDEX  
VSB - VISIBILITY IN MILES  
HX - HEAT INDEX  
TC - TEMPERATURE IN CELSIUS  
VRB - VARIABLE WIND DIRECTION  
N/A - NOT AVAILABLE  
 
 
CLICK HERE TO GO TO PREVIOUS BULLETINS.

The Nexlab MA Page
The Nexlab RI Page
The Nexlab NH Page
The Nexlab CT Page Main Text Page